• In Österreich
  • Länderverzeichnis
  • Für 7 Tage
  • Wassertemperatur
  • Satellitenkarten
  • Wetterkarte
  • News
  • Widgets
  • user-avatar
    Anmelden

    Stündliche Wetter Lubumbaschi

    Heute, 24 September, Montag

    Zeit Temperatur Niederschläge Wind Luftdruck Luftfeuchtigkeit
    00:00 +34°C° 0 mm 3 m/S 718 mmHg 43%
    01:00 +33°C° 0 mm 3 m/S 718 mmHg 44%
    02:00 +32°C° 0 mm 2 m/S 718 mmHg 46%
    03:00 +31°C° 0 mm 2 m/S 718 mmHg 47%
    04:00 +31°C° 0 mm 2 m/S 718 mmHg 49%
    05:00 +30°C° 0 mm 2 m/S 718 mmHg 50%
    06:00 +31°C° 0 mm 2 m/S 718 mmHg 49%
    07:00 +32°C° 0 mm 2 m/S 719 mmHg 47%
    08:00 +32°C° 0 mm 2 m/S 719 mmHg 46%
    09:00 +35°C° 0 mm 2 m/S 719 mmHg 41%
    10:00 +37°C° 0 mm 2 m/S 719 mmHg 37%
    11:00 +38°C° 0 mm 2 m/S 719 mmHg 32%
    12:00 +39°C° 0 mm 3 m/S 719 mmHg 29%
    13:00 +40°C° 0 mm 3 m/S 718 mmHg 25%
    14:00 +42°C° 0 mm 4 m/S 717 mmHg 22%
    15:00 +42°C° 0 mm 3 m/S 717 mmHg 22%
    16:00 +40°C° 0 mm 3 m/S 717 mmHg 23%
    17:00 +40°C° 0 mm 3 m/S 717 mmHg 24%
    18:00 +39°C° 0 mm 3 m/S 717 mmHg 27%
    19:00 +38°C° 0 mm 3 m/S 717 mmHg 29%
    20:00 +37°C° 0 mm 3 m/S 718 mmHg 31%
    21:00 +36°C° 0 mm 3 m/S 718 mmHg 34%
    22:00 +35°C° 0 mm 2 m/S 718 mmHg 36%
    23:00 +34°C° 0 mm 2 m/S 718 mmHg 38%

    Morgen, 25 September, Dienstag

    Zeit Temperatur Niederschläge Wind Luftdruck Luftfeuchtigkeit
    00:00 +34°C° 0 mm 2 m/S 718 mmHg 39%
    01:00 +33°C° 0 mm 3 m/S 717 mmHg 40%
    02:00 +33°C° 0 mm 3 m/S 717 mmHg 42%
    03:00 +31°C° 0 mm 3 m/S 717 mmHg 43%
    04:00 +31°C° 0 mm 3 m/S 717 mmHg 44%
    05:00 +32°C° 0 mm 4 m/S 717 mmHg 44%
    06:00 +32°C° 0 mm 4 m/S 718 mmHg 44%
    07:00 +33°C° 0 mm 4 m/S 718 mmHg 43%
    08:00 +34°C° 0 mm 4 m/S 719 mmHg 42%
    09:00 +35°C° 0 mm 4 m/S 719 mmHg 39%
    10:00 +37°C° 0 mm 4 m/S 719 mmHg 35%
    11:00 +40°C° 0 mm 4 m/S 720 mmHg 31%
    12:00 +39°C° 0 mm 3 m/S 719 mmHg 30%
    13:00 +40°C° 0 mm 3 m/S 718 mmHg 28%
    14:00 +40°C° 0 mm 2 m/S 717 mmHg 27%
    15:00 +40°C° 0 mm 2 m/S 717 mmHg 27%
    16:00 +40°C° 0 mm 2 m/S 716 mmHg 28%
    17:00 +39°C° 0 mm 2 m/S 716 mmHg 29%
    18:00 +36°C° 4 mm 4 m/S 716 mmHg 40%
    19:00 +34°C° 4 mm 5 m/S 717 mmHg 52%
    20:00 +30°C° 4 mm 7 m/S 717 mmHg 63%
    21:00 +32°C° 1.4 mm 5 m/S 718 mmHg 58%
    22:00 +32°C° 1.4 mm 4 m/S 719 mmHg 53%
    23:00 +32°C° 1.4 mm 2 m/S 719 mmHg 48%

    übermorgen, 26 September, Mittwoch

    Zeit Temperatur Niederschläge Wind Luftdruck Luftfeuchtigkeit
    00:00 +31°C° 0.2 mm 2 m/S 719 mmHg 52%
    01:00 +31°C° 0.2 mm 2 m/S 719 mmHg 56%
    02:00 +30°C° 0.2 mm 1 m/S 718 mmHg 60%
    03:00 +29°C° 0 mm 2 m/S 718 mmHg 62%
    04:00 +29°C° 0 mm 4 m/S 718 mmHg 65%
    05:00 +29°C° 0 mm 5 m/S 718 mmHg 67%
    06:00 +29°C° 0.1 mm 5 m/S 718 mmHg 67%
    07:00 +29°C° 0.1 mm 5 m/S 719 mmHg 66%
    08:00 +29°C° 0.1 mm 5 m/S 719 mmHg 66%
    09:00 +32°C° 0 mm 4 m/S 719 mmHg 58%
    10:00 +34°C° 0 mm 3 m/S 719 mmHg 50%
    11:00 +35°C° 0 mm 2 m/S 720 mmHg 42%
    12:00 +37°C° 0 mm 2 m/S 719 mmHg 38%
    13:00 +37°C° 0 mm 1 m/S 718 mmHg 34%
    14:00 +39°C° 0 mm 1 m/S 717 mmHg 30%
    15:00 +39°C° 0 mm 1 m/S 717 mmHg 29%
    16:00 +39°C° 0 mm 1 m/S 717 mmHg 29%
    17:00 +39°C° 0 mm 1 m/S 717 mmHg 28%
    18:00 +37°C° 0.2 mm 1 m/S 717 mmHg 31%
    19:00 +36°C° 0.2 mm 1 m/S 717 mmHg 35%
    20:00 +36°C° 0.2 mm 2 m/S 718 mmHg 38%
    21:00 +35°C° 0.2 mm 2 m/S 718 mmHg 41%
    22:00 +35°C° 0.2 mm 3 m/S 718 mmHg 43%
    23:00 +34°C° 0.2 mm 4 m/S 718 mmHg 45%

    27 September, Donnerstag

    Zeit Temperatur Niederschläge Wind Luftdruck Luftfeuchtigkeit
    00:00 +34°C° 0 mm 3 m/S 718 mmHg 47%
    01:00 +33°C° 0 mm 3 m/S 718 mmHg 49%
    02:00 +32°C° 0 mm 2 m/S 717 mmHg 51%
    03:00 +31°C° 0.2 mm 3 m/S 717 mmHg 53%
    04:00 +30°C° 0.2 mm 3 m/S 717 mmHg 55%
    05:00 +30°C° 0.2 mm 3 m/S 718 mmHg 57%
    06:00 +30°C° 0 mm 3 m/S 718 mmHg 56%
    07:00 +31°C° 0 mm 3 m/S 719 mmHg 55%
    08:00 +31°C° 0 mm 3 m/S 719 mmHg 54%
    09:00 +34°C° 0 mm 3 m/S 719 mmHg 49%
    10:00 +36°C° 0 mm 3 m/S 719 mmHg 44%
    11:00 +37°C° 0 mm 2 m/S 719 mmHg 39%
    12:00 +38°C° 0 mm 2 m/S 718 mmHg 35%
    13:00 +39°C° 0 mm 1 m/S 717 mmHg 32%
    14:00 +40°C° 0 mm 1 m/S 716 mmHg 29%
    15:00 +40°C° 0 mm 1 m/S 716 mmHg 28%
    16:00 +40°C° 0 mm 1 m/S 716 mmHg 27%
    17:00 +37°C° 0 mm 0 m/S 716 mmHg 26%
    18:00 +39°C° 0 mm 1 m/S 717 mmHg 28%
    19:00 +39°C° 0 mm 1 m/S 717 mmHg 29%
    20:00 +37°C° 0 mm 1 m/S 718 mmHg 31%
    21:00 +37°C° 0 mm 1 m/S 717 mmHg 31%
    22:00 +37°C° 0 mm 2 m/S 717 mmHg 32%
    23:00 +37°C° 0 mm 2 m/S 717 mmHg 33%

    28 September, Freitag

    Zeit Temperatur Niederschläge Wind Luftdruck Luftfeuchtigkeit
    00:00 +36°C° 0 mm 2 m/S 717 mmHg 34%
    01:00 +35°C° 0 mm 2 m/S 717 mmHg 36%
    02:00 +34°C° 0 mm 2 m/S 716 mmHg 38%
    03:00 +34°C° 0 mm 2 m/S 717 mmHg 40%
    04:00 +33°C° 0 mm 3 m/S 717 mmHg 41%
    05:00 +33°C° 0 mm 3 m/S 717 mmHg 43%
    06:00 +33°C° 0.2 mm 3 m/S 718 mmHg 44%
    07:00 +33°C° 0.2 mm 4 m/S 719 mmHg 44%
    08:00 +34°C° 0.2 mm 4 m/S 719 mmHg 45%
    09:00 +35°C° 0 mm 4 m/S 719 mmHg 42%
    10:00 +36°C° 0 mm 4 m/S 719 mmHg 39%
    11:00 +38°C° 0 mm 4 m/S 719 mmHg 37%
    12:00 +38°C° 0 mm 3 m/S 718 mmHg 34%
    13:00 +39°C° 0 mm 2 m/S 717 mmHg 31%
    14:00 +40°C° 0 mm 1 m/S 716 mmHg 28%
    15:00 +40°C° 0 mm 1 m/S 716 mmHg 28%
    16:00 +40°C° 0 mm 1 m/S 716 mmHg 27%
    17:00 +40°C° 0 mm 1 m/S 716 mmHg 26%
    18:00 +40°C° 0 mm 1 m/S 717 mmHg 28%
    19:00 +39°C° 0 mm 1 m/S 717 mmHg 29%
    20:00 +37°C° 0 mm 1 m/S 717 mmHg 31%
    21:00 +37°C° 0 mm 1 m/S 717 mmHg 33%
    22:00 +36°C° 0 mm 1 m/S 717 mmHg 36%
    23:00 +33°C° 0 mm 0 m/S 717 mmHg 38%

    29 September, Samstag

    Zeit Temperatur Niederschläge Wind Luftdruck Luftfeuchtigkeit
    00:00 +35°C° 0 mm 1 m/S 716 mmHg 38%
    01:00 +34°C° 0 mm 1 m/S 716 mmHg 37%
    02:00 +35°C° 0 mm 2 m/S 716 mmHg 37%
    03:00 +34°C° 0 mm 2 m/S 716 mmHg 39%
    04:00 +34°C° 0 mm 2 m/S 716 mmHg 42%
    05:00 +32°C° 0 mm 2 m/S 716 mmHg 44%
    06:00 +34°C° 0.1 mm 3 m/S 717 mmHg 44%
    07:00 +34°C° 0.1 mm 3 m/S 717 mmHg 45%
    08:00 +34°C° 0.1 mm 4 m/S 718 mmHg 45%
    09:00 +36°C° 0 mm 4 m/S 718 mmHg 41%
    10:00 +38°C° 0 mm 3 m/S 718 mmHg 37%
    11:00 +39°C° 0 mm 3 m/S 718 mmHg 33%
    12:00 +40°C° 0 mm 2 m/S 717 mmHg 31%
    13:00 +41°C° 0 mm 1 m/S 716 mmHg 28%
    14:00 +39°C° 0 mm 0 m/S 715 mmHg 25%
    15:00 +42°C° 0 mm 1 m/S 715 mmHg 24%
    16:00 +42°C° 0 mm 1 m/S 715 mmHg 23%
    17:00 +42°C° 0 mm 2 m/S 715 mmHg 22%
    18:00 +41°C° 0 mm 2 m/S 716 mmHg 23%
    19:00 +40°C° 0 mm 2 m/S 716 mmHg 25%
    20:00 +40°C° 0 mm 3 m/S 716 mmHg 26%
    21:00 +39°C° 0 mm 3 m/S 716 mmHg 28%
    22:00 +38°C° 0 mm 3 m/S 716 mmHg 31%
    23:00 +36°C° 0 mm 3 m/S 716 mmHg 34%
    Mehr zeigen

    3.3.7123123